Temperature
25 23 23 24 24 25 24 24 24 24 24 23 23 22 22 22 22 21 21 21 21 22 22 21 21 21 21 20 20 20 20 19 19 19 19 19 18 18 18 18 18 18 18 18
24 24 25 25 25 25 24 24 24 24 24 23 22 22 22 22 22 22 22 21 22 22 22 22 21 21 21 21 20 20 20 20 19 19 19 19 18 18 18 18 18 18 18 18
25 25 25 25 25 25 24 24 24 23 23 23 23 22 22 22 22 22 22 22 22 22 22 22 21 21 21 21 21 20 20 20 19 19 19 19 18 18 18 18 18 18 18 18
25 25 25 25 25 25 24 25 24 24 22 21 22 21 22 21 21 21 21 22 22 22 22 22 22 21 21 21 21 20 20 20 19 19 19 19 19 19 18 18 18 18 18 18
25 25 26 25 26 25 24 24 24 23 21 21 21 21 21 20 21 21 21 22 22 22 22 22 22 22 22 21 21 20 20 20 20 19 19 19 19 19 18 18 18 18 18 18
25 25 26 26 26 25 24 23 22 20 20 21 21 21 21 20 21 21 22 22 22 22 23 23 23 22 22 21 21 20 20 20 20 19 19 19 19 19 18 18 18 18 18 18
25 25 25 25 25 24 23 21 21 21 20 20 20 21 21 22 22 22 22 22 23 23 22 22 22 22 22 22 21 21 20 20 20 20 19 19 19 19 19 18 18 18 18 18
24 23 25 25 25 23 22 22 21 22 21 20 20 21 21 22 22 23 23 23 23 23 23 23 23 23 22 22 21 21 21 20 20 20 20 19 19 19 19 19 18 18 18 18
22 23 24 25 25 23 23 21 21 19 20 20 20 20 21 22 22 22 22 22 22 23 23 23 23 23 22 22 22 21 21 20 20 20 20 19 19 19 19 19 18 18 18 18
22 23 24 24 24 23 22 20 18 19 20 21 22 21 21 22 22 21 21 21 22 23 23 23 23 23 23 22 22 21 21 21 20 20 20 20 19 19 19 19 19 18 18 18
21 22 23 24 24 23 22 20 18 17 19 20 21 21 22 21 21 21 21 21 22 23 23 23 23 23 23 22 22 22 21 21 21 20 20 20 20 19 19 19 19 19 18 18
19 19 20 22 23 23 23 21 19 20 19 18 19 21 22 21 20 20 21 22 22 23 23 23 23 22 22 22 22 22 22 21 21 20 20 20 20 19 19 19 19 19 19 18
19 18 20 22 22 22 22 21 19 18 17 17 19 22 21 20 20 21 21 21 22 22 23 23 23 22 22 22 22 22 22 21 21 20 20 20 20 20 19 19 19 19 19 18
18 17 19 21 21 21 22 21 19 19 18 18 19 21 21 21 20 20 21 21 22 22 22 23 22 22 22 22 22 22 21 21 20 20 20 20 20 19 19 19 19 19 19 18
17 18 19 19 20 21 22 22 20 20 19 20 20 20 21 20 20 20 21 21 21 21 22 22 22 22 22 22 22 21 21 21 20 20 20 20 20 19 19 19 19 19 18 18
15 17 19 20 20 21 21 21 21 21 20 20 21 20 20 20 20 20 21 21 21 21 22 22 22 22 22 22 22 21 21 21 20 20 20 20 20 19 19 19 19 18 18 18
14 16 17 18 19 21 21 21 21 21 21 20 20 21 19 19 19 20 21 21 21 22 22 22 22 22 22 22 22 21 21 21 20 20 20 20 19 19 19 19 19 18 18 18
14 14 14 16 19 20 20 20 21 21 20 19 20 19 19 19 20 21 22 22 22 22 22 22 22 22 22 21 21 21 21 20 20 20 20 19 19 19 19 19 18 18 18 18
13 14 13 14 17 18 20 20 20 20 20 19 19 19 18 19 19 20 21 21 22 22 22 22 22 22 22 21 21 21 20 20 20 20 19 19 19 19 19 18 18 18 18 18
12 13 13 14 17 18 19 20 20 20 20 19 18 18 17 18 18 19 21 21 21 21 21 22 22 21 21 21 20 20 20 20 20 20 20 19 19 19 19 18 18 18 18 18
14 13 14 14 16 17 18 18 20 20 20 19 19 18 18 18 19 20 20 20 21 21 21 21 21 21 21 20 20 20 20 20 20 19 19 19 19 19 18 18 18 18 18 17
14 14 13 13 16 17 17 18 18 18 18 19 19 19 18 19 20 20 20 20 20 20 20 20 20 20 20 20 20 20 20 20 19 19 19 19 18 18 18 18 18 17 17 17
12 13 13 14 15 15 16 16 17 18 18 18 19 19 19 19 19 20 20 19 19 20 20 20 20 20 20 20 20 20 19 19 19 18 18 18 18 18 18 17 17 17 17 17
12 12 12 13 14 15 16 17 17 18 18 18 19 19 19 19 19 19 19 19 19 19 19 19 19 19 19 19 19 19 19 19 18 18 18 18 18 18 17 17 17 16 16 16
12 12 12 12 13 14 16 17 17 17 18 18 18 18 18 18 18 18 18 19 19 19 19 19 19 19 19 18 18 18 18 18 18 18 18 17 17 17 17 17 16 16 16 16
11 12 12 13 13 13 14 16 16 17 17 17 17 17 17 18 18 18 18 18 18 18 18 18 18 18 18 18 18 18 18 18 18 17 17 17 17 16 16 16 16 15 15 15
Wind_Speed
3 5 3 7 7 5 6 5 3 3 2 3 4 4 5 7 8 8 7 7 8 8 6 5 5 6 6 5 5 5 5 5 5 3 3 2 1 1 1 1 2 3 3 4
5 2 6 5 5 4 4 3 2 0 1 3 2 3 4 8 11 11 11 10 9 7 5 5 6 6 6 7 6 6 5 5 5 3 3 2 2 1 1 1 2 2 3 3
5 5 3 5 4 4 3 5 5 4 2 4 3 4 2 4 5 6 7 8 8 10 9 7 7 7 6 7 7 7 6 6 5 5 4 3 3 2 2 1 1 1 2 2
4 4 4 4 4 6 4 5 6 6 4 1 2 2 6 4 4 7 8 8 9 9 8 8 8 7 8 8 7 6 6 6 5 6 5 4 3 2 2 1 1 1 1 2
5 3 4 4 5 6 4 3 5 5 5 2 2 1 7 1 5 9 10 11 10 10 10 10 10 9 8 7 7 6 6 5 5 6 6 5 3 2 1 1 2 1 1 1
5 3 4 5 2 5 7 7 8 6 5 1 2 2 6 5 8 7 9 10 10 10 10 9 8 7 7 7 7 7 6 5 5 6 5 5 5 4 4 2 2 1 0 1
3 3 2 3 5 4 6 7 4 4 3 4 2 3 8 8 7 9 10 10 10 10 10 9 9 9 9 9 8 8 8 6 6 6 5 5 6 6 5 4 3 2 1 1
3 5 4 3 6 7 6 9 8 5 5 4 1 5 8 6 5 5 6 6 7 9 10 10 11 10 10 10 9 9 8 7 7 6 6 5 5 5 4 4 4 3 3 2
7 6 4 2 3 9 7 4 6 7 3 1 4 6 8 3 2 1 3 5 7 8 9 10 10 10 10 10 10 10 9 7 7 6 5 4 5 5 4 4 3 3 2 2
7 4 4 2 5 4 6 9 6 7 6 3 4 5 5 6 5 3 4 6 6 7 7 8 8 9 9 10 9 9 9 8 7 6 6 5 5 5 4 4 4 4 3 2
4 5 3 2 4 5 5 5 6 5 5 7 4 7 6 8 7 7 7 7 7 8 8 8 8 8 8 8 9 9 8 7 7 7 6 5 5 4 4 4 4 3 3 3
3 5 2 5 3 2 5 7 8 6 4 5 5 7 4 5 5 6 6 5 6 6 7 7 7 7 8 8 9 9 9 8 8 7 6 5 5 5 4 4 4 3 3 3
4 5 2 4 4 2 2 3 5 7 6 6 5 7 3 0 2 3 5 5 5 5 5 6 6 7 8 8 8 8 8 8 7 7 7 6 5 6 5 5 4 4 3 3
4 4 6 9 8 4 2 3 5 6 5 6 8 7 5 4 4 4 5 6 6 6 6 6 6 7 7 8 8 7 7 7 7 7 7 6 6 6 5 4 4 4 4 4
5 4 3 4 4 4 4 4 6 6 8 9 9 8 9 8 8 6 5 6 6 6 6 7 7 6 6 7 7 7 7 7 7 7 7 6 5 5 4 4 4 4 4 4
4 4 2 0 1 3 3 5 7 6 5 6 5 7 7 3 3 3 5 7 7 7 7 8 7 7 8 8 8 8 8 8 8 8 7 6 5 5 5 4 4 4 3 3
2 4 3 2 2 1 4 6 7 5 4 6 8 8 2 3 6 8 8 8 8 8 7 8 9 8 8 8 8 9 8 8 8 7 6 6 5 5 4 4 4 4 3 2
5 4 3 2 2 5 8 3 4 5 4 4 4 4 5 6 5 4 5 7 6 7 7 7 8 7 7 7 7 7 7 7 8 7 7 6 6 5 4 4 4 3 2 2
6 7 4 4 4 5 6 1 3 4 4 3 4 2 1 2 3 1 1 3 5 6 6 6 6 6 6 7 7 8 7 7 7 7 7 7 7 6 6 5 5 4 3 3
4 5 5 4 5 7 7 3 2 4 3 3 3 3 2 4 2 4 2 1 2 2 3 4 5 6 6 6 7 8 7 7 7 7 7 6 7 7 7 6 5 4 3 3
4 3 4 5 5 7 6 5 1 6 7 3 3 4 5 5 5 3 3 2 3 2 4 5 6 6 5 6 7 8 7 7 6 5 5 6 6 6 6 5 4 4 4 3
5 5 5 5 5 7 4 1 3 5 3 2 2 3 5 2 1 4 5 4 4 4 4 6 6 5 5 6 7 7 6 5 4 5 5 5 5 5 5 5 4 4 4 4
3 5 5 7 7 4 2 2 3 2 2 2 2 2 3 2 2 3 4 4 3 4 4 5 6 5 4 5 6 6 4 5 6 6 5 4 4 4 4 5 5 4 4 4
2 1 2 2 4 4 3 3 3 1 1 2 1 1 2 2 3 3 4 3 3 3 4 4 6 6 4 3 4 5 5 6 7 6 5 4 4 4 3 3 3 4 3 4
4 1 1 2 5 5 4 3 3 3 3 3 3 2 2 3 3 3 3 3 3 3 3 4 5 6 5 4 4 4 5 7 7 6 5 4 4 4 3 3 2 3 4 5
4 5 5 6 6 4 5 5 3 2 2 1 2 2 2 2 2 2 2 2 3 3 3 3 3 4 4 4 4 4 4 6 7 5 4 4 3 3 3 3 1 1 1 2
Wind_Direction
74 86 169 205 197 182 160 162 194 221 193 160 201 217 200 190 189 194 199 201 205 212 210 186 178 169 157 158 156 155 147 144 132 119 114 108 96 80 85 95 120 137 134 131
53 242 223 180 165 137 144 154 193 43 132 151 199 261 222 200 202 200 201 203 205 202 195 189 175 168 169 171 170 164 164 160 158 147 133 130 122 103 91 80 94 123 139 145
184 228 169 137 144 148 182 185 188 166 83 56 75 331 248 227 219 207 205 201 198 196 194 193 182 180 176 180 180 180 177 170 164 148 118 97 77 60 64 81 80 84 122 131
220 226 160 152 180 160 228 211 160 138 119 344 101 277 282 238 234 221 214 207 206 201 193 188 183 184 187 190 182 176 173 170 164 154 150 151 154 167 189 163 138 81 111 132
230 187 162 192 205 167 191 124 117 113 114 72 22 162 288 257 240 238 224 214 207 198 192 193 191 187 189 183 178 175 168 170 165 164 166 161 162 168 138 116 118 85 44 76
231 223 194 199 163 142 124 77 60 54 70 31 248 177 280 232 225 231 223 216 207 197 194 195 189 174 176 173 172 170 169 177 171 170 169 170 173 166 154 157 160 143 59 24
309 300 243 148 104 75 100 97 49 15 13 257 237 201 255 251 230 219 221 213 203 194 190 188 183 181 178 176 178 176 174 181 177 174 177 179 178 175 178 180 179 173 182 208
185 272 242 183 162 165 167 141 155 181 211 269 271 236 259 273 261 233 215 201 192 191 189 190 189 188 186 182 179 175 180 187 182 180 184 178 173 176 184 185 179 184 197 209
177 240 279 220 162 138 140 161 157 132 139 152 276 286 302 297 303 267 183 177 189 192 189 190 189 187 185 182 181 181 182 184 185 185 179 176 179 180 185 184 179 186 197 202
160 210 279 279 84 48 138 142 106 122 146 215 279 272 255 261 245 231 202 196 198 191 185 184 187 188 186 182 180 178 180 183 181 178 183 188 190 189 182 174 183 184 190 189
139 161 296 40 159 175 112 103 108 117 147 157 220 263 232 225 215 206 211 203 193 189 185 185 185 184 180 172 173 177 178 176 180 182 183 184 186 184 178 179 190 186 184 187
127 131 213 257 272 195 151 156 146 149 193 173 177 258 279 229 214 198 205 202 188 184 182 177 173 168 172 176 179 181 181 184 187 180 175 183 175 169 178 189 195 183 185 190
125 116 104 344 341 18 105 141 143 129 125 154 172 254 311 342 204 205 197 191 174 167 167 162 161 168 176 180 183 182 183 186 179 169 172 180 179 177 185 192 186 177 182 187
123 121 168 194 210 194 187 166 152 133 151 189 214 237 278 264 233 220 198 185 173 167 165 164 170 174 176 178 179 176 178 173 170 168 174 186 192 189 188 184 181 180 180 182
96 136 183 218 218 187 194 199 177 181 184 184 218 220 240 234 222 216 191 173 164 165 171 177 177 176 171 169 171 171 172 166 165 165 178 194 192 177 173 177 184 187 188 191
63 130 126 280 242 203 216 225 199 199 188 203 214 242 248 230 183 190 192 178 177 180 182 181 178 174 173 173 173 169 172 168 161 168 181 183 175 171 176 179 180 181 187 186
72 116 111 224 289 89 243 225 198 194 192 179 206 232 228 206 205 201 197 188 188 188 186 185 184 182 182 181 175 174 176 167 165 172 175 173 172 175 182 176 166 177 185 180
148 118 125 149 107 206 238 242 187 177 201 208 227 236 214 215 216 211 193 187 190 189 187 190 187 186 183 174 168 165 161 163 168 173 178 177 175 177 173 166 174 180 174 175
167 143 132 138 179 259 290 249 160 177 237 227 214 243 245 122 81 329 210 185 196 193 186 183 178 174 168 166 165 157 160 164 170 180 185 184 179 177 175 181 188 183 173 183
94 114 127 139 164 218 239 271 268 143 245 255 187 193 161 115 145 249 223 145 140 152 154 153 147 142 152 162 157 157 164 167 181 190 187 179 176 177 181 187 186 177 175 189
89 87 143 164 196 248 260 294 90 161 231 260 203 191 179 191 207 215 157 135 133 124 135 139 137 139 150 153 153 158 164 183 193 180 166 165 170 175 176 175 173 168 172 170
167 154 174 155 182 242 297 29 164 220 273 252 216 202 200 220 121 128 138 138 134 114 124 137 138 139 139 144 147 154 170 176 158 154 156 162 164 170 168 164 167 165 165 165
189 187 185 189 208 246 286 254 274 245 255 264 236 222 185 165 151 136 136 135 133 124 122 133 135 134 132 139 145 153 167 150 143 143 149 151 147 153 157 163 167 160 164 174
266 175 157 251 271 286 296 305 322 312 277 283 233 174 149 152 158 148 138 135 130 122 125 129 135 137 143 148 145 158 156 148 142 144 146 145 146 150 150 153 159 165 178 188
230 189 152 258 283 312 318 321 322 343 8 31 35 68 111 123 138 151 149 146 139 127 124 139 152 153 159 159 154 154 151 146 143 142 140 142 148 152 152 156 172 183 202 201
213 191 185 223 227 218 258 282 310 338 340 11 44 32 48 101 134 125 132 137 134 127 115 120 134 142 151 154 150 148 150 146 144 146 149 152 150 151 153 150 108 54 194 207
Height
1481 1488 1495 1493 1490 1492 1496 1503 1506 1503 1498 1501 1504 1504 1502 1502 1504 1506 1507 1509 1511 1512 1514 1517 1519 1521 1522 1524 1525 1527 1528 1529 1530 1531 1531 1533 1533 1534 1535 1536 1537 1538 1538 1539
1487 1491 1485 1484 1487 1490 1495 1503 1505 1502 1497 1501 1505 1505 1501 1501 1501 1502 1504 1506 1508 1510 1513 1515 1517 1519 1521 1523 1525 1526 1528 1529 1531 1532 1533 1534 1535 1535 1536 1537 1538 1538 1539 1539
1488 1486 1482 1485 1489 1493 1497 1501 1502 1504 1501 1501 1506 1510 1504 1500 1500 1501 1502 1503 1506 1508 1510 1513 1515 1518 1520 1522 1524 1526 1527 1529 1530 1532 1533 1534 1535 1536 1537 1538 1538 1539 1540 1540
1483 1480 1481 1485 1488 1490 1499 1491 1494 1499 1509 1517 1512 1525 1508 1502 1500 1499 1500 1501 1503 1505 1508 1510 1513 1516 1518 1521 1523 1525 1527 1529 1531 1532 1533 1534 1535 1536 1537 1538 1538 1539 1540 1540
1482 1479 1480 1485 1484 1485 1491 1488 1493 1500 1510 1519 1518 1524 1514 1503 1502 1497 1496 1497 1499 1502 1505 1507 1510 1513 1517 1520 1522 1525 1527 1529 1530 1532 1533 1534 1535 1536 1537 1538 1538 1539 1540 1541
1477 1475 1476 1477 1478 1481 1486 1493 1501 1509 1517 1530 1522 1526 1519 1506 1497 1492 1491 1493 1495 1498 1501 1505 1508 1512 1515 1518 1520 1523 1525 1527 1529 1531 1532 1533 1535 1536 1537 1537 1538 1539 1540 1540
1482 1477 1474 1474 1481 1484 1488 1507 1527 1530 1538 1534 1520 1522 1514 1491 1487 1486 1487 1488 1491 1495 1498 1502 1505 1508 1511 1515 1518 1521 1523 1526 1528 1530 1531 1533 1534 1535 1536 1537 1538 1538 1539 1540
1493 1493 1476 1473 1477 1486 1491 1500 1525 1536 1539 1533 1521 1521 1502 1485 1483 1482 1483 1485 1489 1492 1495 1498 1501 1505 1508 1512 1515 1518 1521 1524 1526 1528 1530 1532 1533 1534 1535 1536 1537 1538 1539 1540
1492 1491 1473 1470 1471 1477 1491 1499 1500 1519 1527 1532 1526 1513 1495 1483 1482 1482 1482 1484 1486 1488 1492 1495 1499 1502 1506 1510 1513 1516 1519 1522 1525 1527 1529 1530 1532 1533 1534 1536 1537 1538 1538 1539
1479 1487 1476 1471 1471 1476 1481 1491 1508 1520 1534 1536 1524 1517 1508 1489 1485 1482 1482 1482 1484 1487 1490 1493 1497 1500 1504 1508 1511 1514 1517 1520 1523 1525 1527 1529 1531 1532 1533 1534 1536 1537 1538 1538
1475 1486 1482 1476 1479 1483 1487 1494 1504 1516 1518 1531 1533 1517 1486 1483 1480 1480 1479 1480 1481 1484 1487 1491 1494 1498 1502 1506 1509 1512 1515 1518 1521 1523 1526 1528 1529 1531 1532 1533 1534 1535 1536 1537
1477 1486 1493 1483 1475 1473 1477 1486 1498 1510 1518 1521 1524 1511 1476 1476 1476 1476 1477 1479 1480 1483 1485 1489 1493 1496 1500 1503 1506 1509 1513 1516 1519 1522 1524 1526 1527 1529 1530 1531 1533 1534 1535 1536
1476 1488 1499 1495 1489 1481 1481 1484 1489 1498 1512 1521 1521 1504 1475 1475 1475 1476 1477 1478 1480 1482 1484 1488 1491 1494 1497 1500 1503 1506 1510 1514 1517 1520 1522 1524 1525 1527 1528 1530 1531 1532 1534 1535
1470 1486 1493 1498 1492 1484 1484 1483 1487 1494 1508 1514 1507 1493 1480 1476 1475 1474 1475 1477 1479 1481 1483 1486 1488 1491 1495 1498 1501 1504 1507 1511 1514 1517 1519 1521 1523 1525 1526 1528 1529 1531 1532 1533
1471 1484 1483 1481 1478 1478 1479 1480 1483 1487 1490 1497 1492 1489 1478 1473 1472 1472 1473 1476 1478 1479 1482 1484 1486 1489 1492 1496 1499 1502 1505 1508 1512 1514 1516 1518 1521 1522 1524 1526 1528 1529 1530 1531
1475 1482 1482 1482 1477 1477 1478 1476 1477 1479 1481 1484 1482 1481 1470 1468 1470 1471 1472 1474 1475 1477 1480 1482 1485 1487 1490 1493 1496 1499 1502 1505 1508 1511 1513 1516 1518 1520 1522 1524 1525 1526 1527 1528
1480 1483 1488 1490 1482 1478 1485 1474 1474 1474 1473 1476 1480 1473 1468 1468 1467 1467 1469 1471 1473 1475 1477 1480 1482 1485 1487 1490 1493 1496 1499 1503 1505 1508 1511 1513 1516 1518 1519 1521 1522 1524 1525 1526
1479 1485 1493 1494 1488 1495 1478 1464 1465 1468 1469 1469 1468 1466 1465 1464 1463 1465 1467 1468 1470 1473 1475 1478 1480 1483 1486 1488 1491 1494 1497 1500 1503 1505 1508 1511 1513 1515 1517 1518 1519 1521 1522 1523
1471 1480 1492 1498 1496 1488 1472 1464 1465 1468 1469 1464 1465 1464 1463 1463 1464 1465 1466 1467 1469 1471 1473 1476 1478 1481 1484 1486 1489 1492 1495 1497 1500 1502 1505 1508 1510 1512 1514 1515 1517 1518 1519 1520
1471 1475 1487 1494 1493 1493 1473 1461 1460 1464 1471 1462 1462 1462 1463 1463 1469 1465 1464 1465 1468 1470 1473 1475 1477 1479 1482 1485 1488 1490 1492 1495 1497 1499 1502 1505 1507 1509 1511 1513 1515 1516 1517 1518
1478 1482 1486 1490 1489 1481 1465 1460 1459 1474 1470 1460 1459 1460 1461 1461 1461 1461 1462 1464 1466 1468 1471 1473 1475 1477 1480 1483 1485 1488 1490 1492 1495 1498 1500 1502 1505 1507 1509 1511 1512 1514 1515 1516
1476 1481 1486 1488 1488 1481 1462 1460 1463 1464 1458 1458 1457 1457 1458 1458 1459 1460 1461 1463 1465 1467 1469 1471 1474 1475 1478 1481 1483 1485 1487 1491 1494 1496 1498 1500 1502 1504 1506 1508 1509 1511 1512 1513
1472 1472 1474 1475 1473 1464 1461 1461 1460 1458 1457 1456 1456 1456 1456 1457 1457 1458 1460 1462 1464 1466 1468 1470 1473 1475 1477 1479 1481 1483 1486 1489 1491 1494 1496 1498 1500 1501 1503 1505 1506 1507 1509 1510
1468 1467 1468 1469 1464 1461 1460 1459 1458 1457 1456 1455 1455 1455 1455 1456 1456 1458 1459 1461 1463 1464 1466 1469 1472 1474 1476 1478 1480 1483 1485 1487 1489 1491 1493 1495 1497 1499 1500 1502 1504 1505 1506 1507
1466 1465 1466 1466 1463 1460 1458 1457 1457 1456 1455 1454 1454 1455 1455 1455 1456 1457 1458 1460 1461 1463 1466 1468 1470 1472 1475 1478 1480 1482 1484 1485 1487 1488 1491 1493 1495 1497 1498 1500 1501 1502 1504 1505
1462 1463 1464 1463 1459 1460 1458 1456 1456 1455 1454 1454 1454 1455 1456 1456 1456 1457 1458 1460 1461 1463 1465 1468 1470 1472 1474 1476 1478 1480 1482 1484 1485 1487 1489 1491 1493 1494 1496 1497 1498 1500 1502 1503